1st Responders/1st Detectors/Storm Spotters Weather Summary for Boyd County, KY

Forecast Maps


Reg. NEXRAD Animation


National Fire Danger: Day 1 & 2 Map

Current NWS Watch/Warnings

SPC Convective Day 1 Outlook


Day 2 Outlook

(Click images to enlarge|Page will refresh every 5 minutes)
UK Ag. Weather Center Desktop Severe Weather Service[HERE]
Boyd County, KY Hazardous Weather Outlook Webcast
(9 AM to 9 PM Mon-Fri)
[Fast]
[Dial-up]


UKAWC 1st Detectors/1st Responders Precision Weather Forecast For BOYD County, Kentucky
(based on the NWS County Digital Forecast)

ISSUED AT 14:00 UTC ON SUNDAY JUL 22 2018
DAY SUNDAY
EDT 3HR 11A NOON 1P 2P 3P 4P 5P 6P 7P
MAX/MIN -- -- -- -- -- -- -- -- 76°
TEMP 70° 70° 72° 72° 74° 74° 76° 74° 74°
SKY COVER 98% 93% 89% 85% 86% 87% 88% 83% 77%
Clouds
DEW PT 68° 70° 70° 70° 70° 70° 70° 70° 68°
RH 96% 96% 93% 89% 87% 84% 81% 84% 84%
POP 12HR -- -- -- -- -- -- -- -- --
RAIN/SNOW (liq.equ) -- -- -- 0.18in -- -- -- -- --
SNOWFALL -- -- -- 0in -- -- -- -- --
WIND SPEED(MPH) 2 2 2 2 1 1 1 1 1
WIND Gust(MPH) 2 2 2 2 1 1 1 1 1
WIND DIR SW SW SW SW SW SW SW S SE
DEW -- -- Hvy Dew Hvy Dew Hvy Dew Hvy Dew Lgt Dew Hvy Dew Lgt Dew
HeatIndex 70 70 72 72 74 74 76 74 74
Rain Showers Chance Chance Likely Likely Likely Likely Likely Likely Likely
Thunder Storm Chance Chance Chance Chance Chance Chance Likely Likely Likely
WIND CHILL -- -- -- -- -- -- -- -- --
SPRAY COND
DRY COND
LIVESTOCK HEATSTRESS 69.75 69.75 71.49 71.20 72.91 72.66 74.20 72.66 72.66



DAY MONDAY TUESDAY WEDNESDAY THURSDAY FRIDAY SATURDAY
EDT 6HR 8P 9P 10P 11P MIDN 1A 2A 3A 4A 5A 6A 7A 8A 9A 10A 11A NOON 1P 2P 3P 4P 5P 6P 7P 8P 9P 10P 11P 2A 5A 8A 11A 2P 5P 8P 2A 8A 2P 8P 2A 8A 2P 8P 2A 8A 2P 8P 2A 8A 2P 8P
MAX/MIN -- -- -- -- -- -- -- -- -- -- -- -- 65° -- -- -- -- -- -- -- -- -- -- 83° -- -- -- -- -- -- 67° -- -- 83° -- -- 67° 83° -- -- 67° 85° -- -- 67° 85° -- -- 65° 85° --
TEMP 72° 72° 70° 70° 68° 67° 67° 67° 67° 67° 65° 65° 67° 70° 72° 76° 79° 81° 81° 83° 83° 83° 81° 79° 76° 74° 72° 70° 68° 67° 70° 79° 83° 83° 76° 68° 68° 81° 77° 70° 68° 85° 81° 70° 68° 83° 77° 67° 67° 83° 76°
SKY COVER 73% 68% 63% 58% 53% 48% 43% 47% 52% 57% 66% 75% 82% 77% 68% 64% 64% 64% 64% 66% 69% 71% 72% 73% 74% 74% 74% 74% 68% 71% 72% 63% 69% 80% 77% 76% 80% 76% 65% 50% 46% 27% 19% 28% 49% 45% 38% 51% 53% 47% 52%
Clouds
DEW PT 68° 68° 67° 67° 67° 67° 67° 67° 65° 65° 65° 65° 67° 67° 67° 68° 68° 70° 70° 70° 70° 70° 70° 70° 70° 70° 68° 68° 67° 67° 68° 70° 72° 70° 72° 68° 68° 72° 70° 67° 67° 68° 68° 65° 65° 67° 65° 65° 65° 67° 67°
RH 87% 90% 90% 93% 96% 96% 97% 100% 96% 96% 100% 100% 99% 93% 84% 79% 71% 69% 66% 64% 64% 65% 67% 71% 78% 84% 87% 93% 97% 97% 96% 76% 71% 65% 84% 100% 100% 74% 79% 93% 97% 58% 67% 87% 90% 56% 67% 89% 89% 57% 71%
POP 12HR 78% -- -- -- -- -- -- -- -- -- -- -- 72% -- -- -- -- -- -- -- -- -- -- -- 49% -- -- -- -- -- 44% -- -- -- 58% -- 57% -- 51% -- 37% -- 9% -- 9% -- 16% -- 12% -- 14%
RAIN/SNOW (liq.equ) 0.18in -- -- -- -- -- 0.11in -- -- -- -- -- 0.00in -- -- -- -- -- 0.00in -- -- -- -- -- 0.12in -- -- -- 0.05in -- 0.00in -- 0.05in -- 0.30in -- -- -- -- -- -- -- -- -- -- -- -- -- -- -- --
SNOWFALL 0in -- -- -- -- -- 0in -- -- -- -- -- 0in -- -- -- -- -- 0in -- -- -- -- -- 0in -- -- -- 0in -- 0in -- 0in -- 0in -- -- -- -- -- -- -- -- -- -- -- -- -- -- -- --
WIND SPEED(MPH) 1 0 0 0 0 0 0 0 0 0 0 1 1 1 2 2 2 2 2 2 2 2 2 2 2 2 1 1 1 1 1 2 2 2 1 0 1 1 2 1 1 5 2 2 2 5 5 1 2 2 5
WIND DIR SE E E E E NE NE NE NE NE NE NE E E SE SE SE SE SE SE SE E E NE N NE NE NE E E E SE S SW E E S W NW W W W W W NW NW NW NE N NW N
HeatIndex 72 72 70 70 68 67 67 67 67 67 65 65 67 70 72 76 79 84 85 87 87 87 85 83 76 74 72 70 68 67 70 79 88 88 76 68 68 87 77 70 68 88 84 70 68 86 77 67 67 86 76
Rain Showers Likely Likely Chance Chance Chance Chance Chance Slight Chance Slight Chance Slight Chance Slight Chance Chance Chance Chance Chance Chance Chance Chance Chance Chance Chance Chance Chance Chance Chance Chance Chance Chance Chance -- Slight Chance Chance Chance Likely Likely Chance Chance Chance Chance Slight Chance -- -- -- -- -- -- -- -- -- -- Slight Chance
Thunder Storm Likely Chance Chance Chance Chance -- -- -- -- -- -- -- -- -- -- -- Slight Chance Slight Chance Slight Chance Slight Chance Slight Chance Slight Chance Slight Chance Slight Chance Slight Chance -- -- -- -- -- -- -- Slight Chance Chance Chance -- -- Slight Chance Slight Chance -- -- -- -- -- -- -- -- -- -- -- --
WIND CHILL -- -- -- -- -- -- -- -- -- -- -- -- -- -- -- -- -- -- -- -- -- -- -- -- -- -- -- -- -- -- -- -- -- -- -- -- -- -- -- -- -- -- -- -- -- -- -- -- -- -- --
SPRAY COND
DRY COND
LIVESTOCK HEATSTRESS 71.06 71.27 69.38 69.57 67.80 66.82 66.86 67.00 66.82 66.82 65.00 65.00 66.95 69.57 70.84 74.01 75.78 77.21 76.85 78.21 78.21 78.34 76.97 75.78 73.92 72.66 71.06 69.57 67.85 66.86 69.75 76.33 79.14 78.34 74.49 68.00 68.00 77.83 74.90 69.57 67.85 78.95 76.97 69.20 67.49 77.14 73.70 66.50 66.50 77.28 73.26

Click on individual weather variable above in left-hand column (ie., TEMP, RH, QPF 12HR) to view state forecast maps






NWS 48 Hr. Forecast Maps,

Regional Hourly Observations For BOYD County, Kentucky
Issued at 1000 AM EDT SUN JUL 22 2018
NORTHEAST KENTUCKY
  
CITY           SKY/WX    TMP DP  RH WIND       PRES   REMARKS
LEXINGTON      RAIN      68  66  93 W9        29.74R FOG              
COVINGTON      CLOUDY    70  68  93 N10       29.72R                  
FRANKFORT      CLOUDY    69  67  93 W6        29.72S FOG              


Current NOWCAST not available:
Nowcasts are not issued routinely during fair weather. Only when
precipitation or other significant weather is occuring in this county will these
forecasts be issued. Currently, there is no short term forecast in effect.


Fire Weather Forecast For BOYD County, KY
Provided by the National Weather Service:

Issued at: Sun Jul 22 10:35:15 EDT 2018

Cloud cover           MCldy        PCldy        PCldy        
Precip type           Tstms        Tstms        Tstms        
Chance precip (%)     80           80           50           
Min/Max TEMP          77           65           83           
Max/Min RH %          78           100          61           
20ftWnd-val/AM(mph)   Lgt/Var                   Lgt/Var      
20ftWnd-rdg/PM(mph)   Lgt/Var      Lgt/Var      Lgt/Var      
Precip amount         0.36         0.15         0.08         
Precip duration       8            5            2            
Precip begin          6 AM         Continuing   Continuing   
Precip end            Continuing   Continuing   Continuing   
Mixing hgt(ft-AGL/MSL)2330                      7300         
Transport wnd (mph)   SW  7                     S  3         
Vent rate (kt-ft)     14740                     34680        
Dispersion                         VERY POOR                 
LAL                   4            4            3            
Haines Index          3            3            3            
Stability class                                              

REMARKS...None.

SPC's Fire Weather Web Tool (Excellent!), SPC's Fire Weather Outlooks, NWS Fire Weather WEB, Fire Danger Class Map,
Keetch-Byram Drought Index, ROMAN Web, Haines Index ,
WFAS's 10-hr Dead Fuel Moist., WFAS's 100-hr Dead Fuel Moist., Probablity of Ignition, Visual blackness Map, Palmer Drought Index, HPC's Rainfall Forecast Maps


Hazardous Weather Outlook For BOYD County, Kentucky
418 AM EDT Sun Jul 22 2018

 DAY ONE  Today and Tonight.

Rounds of showers and thunderstorms, some with heavy rain, along 
with nearly saturated soils, could lead to localized flash flooding.

 DAYS TWO THROUGH SEVEN  Monday through Saturday.

No hazardous weather is expected at this time. 

 SPOTTER INFORMATION STATEMENT  

Weather spotters are encouraged to report significant weather
conditions by calling the toll-free spotter hotline, or by other
methods detailed at www.weather.gov/rlx/reports.

Latest BOYD County, Kentucky Watches, Warnings and Advisories.
Additional Drought Info.: UKAWC Drought Page, Kentucky Drought Watch


7-Day Forecast For BOYD County, KY

REST OF TODAY
Cloudy. A chance of showers late this morning, then showers and thunderstorms likely this afternoon. Highs in the upper 70s. Southwest winds around 5 mph. Chance of rain 70 percent.

TONIGHT
Mostly cloudy with showers and thunderstorms likely in the evening, then partly cloudy with a chance of showers and thunderstorms after midnight. Lows in the mid 60s. Light and variable winds. Chance of rain 70 percent.

MONDAY
Partly sunny with a chance of showers. A slight chance of thunderstorms in the afternoon. Highs in the lower 80s. Southeast winds around 5 mph. Chance of rain 50 percent.

MONDAY NIGHT
A slight chance of thunderstorms in the evening. Mostly cloudy with a chance of showers. Lows in the upper 60s. East winds around 5 mph. Chance of rain 50 percent.

TUESDAY
Partly sunny in the morning, then becoming mostly cloudy. A chance of showers. A slight chance of thunderstorms in the afternoon. Humid with highs in the mid 80s. Southeast winds around 5 mph, becoming south around 5 mph in the afternoon. Chance of rain 50 percent.

TUESDAY NIGHT
Mostly cloudy. Showers likely with a chance of thunderstorms in the evening, then a chance of showers after midnight. Lows in the upper 60s. Chance of rain 60 percent.

WEDNESDAY AND WEDNESDAY NIGHT
Mostly cloudy with a chance of showers. Highs in the lower 80s. Lows in the upper 60s. Chance of rain 50 percent.

THURSDAY THROUGH SATURDAY
Partly cloudy. Hot. Highs in the mid 80s. Lows in the mid 60s.

Ag Weather Center, Department of Biosystems & Agricultural Engineering, University of Kentucky